Terminal Aerodrome Forecast
Issued by NWS Pittsburgh, PA

Current Version | Previous Version | Graphics & Text | Print | Product List | Glossary On
Versions: 1 2 3 4 5 6 7 8 9 10 11 12 13 14 15 16 17 18 19 20 21 22 23 24 25 26
000
FTUS41 KPBZ 191700
TAFPIT
TAF
KPIT 191739Z 1918/2024 31006KT 4SM -SN BR BKN015
     FM192100 32006KT P6SM OVC015
     FM200000 31003KT P6SM OVC025=

USA.gov is the U.S. government's official web portal to all federal, state and local government web resources and services.